KK7N Weather Reports


Display with metric or nautical units.
time (UTC)temp
F
wind
direction
speed
MPH
gust
MPH
rain 1hr
in
rain 24hr
in
rain mn
in
humidity
%
barometer
mb
20260505223044 64 286 2.0 8.0 0.00 0.00 0.00 71 1016.2
20260505221550 64 0 2.0 5.0 0.00 0.00 0.00 72 1016.0
20260505220051 64 0 0.0 3.0 0.00 0.00 0.00 73 1016.2
20260505214604 64 338 1.0 4.0 0.00 0.00 0.00 71 1016.3
20260505213058 65 0 0.0 4.0 0.00 0.00 0.00 70 1016.3
20260505211549 65 0 0.0 6.0 0.00 0.00 0.00 70 1016.3
20260505210057 65 346 2.0 5.0 0.00 0.00 0.00 69 1016.4
20260505204556 65 61 0.0 5.0 0.00 0.00 0.00 72 1016.4
20260505203054 62 0 0.0 3.0 0.00 0.00 0.00 78 1016.6
20260505201554 61 59 0.0 0.0 0.00 0.00 0.00 79 1016.8
20260505200105 61 0 0.0 1.0 0.00 0.00 0.00 77 1016.7
20260505194559 61 0 0.0 2.0 0.00 0.00 0.00 80 1016.8
20260505193051 60 0 0.0 1.0 0.00 0.00 0.00 79 1016.8
20260505191541 60 0 0.0 3.0 0.00 0.00 0.00 79 1016.8
20260505190056 60 59 0.0 3.0 0.00 0.00 0.00 80 1016.8
20260505184551 59 0 0.0 1.0 0.00 0.00 0.00 80 1016.9
20260505183054 59 252 1.0 4.0 0.00 0.00 0.00 79 1017.0
20260505181542 59 252 2.0 5.0 0.00 0.00 0.00 78 1016.9
20260505174559 59 265 0.0 4.0 0.00 0.00 0.00 78 1016.8
20260505173048 58 252 2.0 5.0 0.00 0.00 0.00 80 1016.7
20260505171547 58 0 0.0 2.0 0.00 0.00 0.00 81 1016.6
20260505170050 57 0 1.0 4.0 0.00 0.00 0.00 82 1016.7
20260505164545 57 214 0.0 3.0 0.00 0.00 0.00 83 1016.6
20260505163044 57 0 0.0 5.0 0.00 0.00 0.00 84 1016.5
20260505161558 56 0 0.0 5.0 0.00 0.00 0.00 85 1016.6
20260505153049 55 0 0.0 4.0 0.00 0.00 0.00 87 1016.4
20260505151548 55 0 0.0 3.0 0.00 0.00 0.00 87 1016.3
20260505124550 55 0 0.0 4.0 0.00 0.00 0.00 86 1015.3
20260505123054 55 0 0.0 4.0 0.00 0.00 0.00 85 1015.3
20260505121543 55 0 0.0 3.0 0.00 0.00 0.00 85 1015.3
20260505120044 55 0 0.0 5.0 0.00 0.00 0.00 84 1015.2
20260505114542 55 211 0.0 3.0 0.00 0.00 0.00 84 1015.2
20260505113056 55 211 0.0 5.0 0.00 0.00 0.00 84 1015.1
20260505111545 55 0 0.0 2.0 0.00 0.00 0.00 84 1015.2
20260505101548 56 215 0.0 6.0 0.00 0.00 0.00 82 1014.6
20260505100050 56 214 1.0 5.0 0.00 0.00 0.00 82 1014.6
20260505094544 56 0 0.0 4.0 0.00 0.00 0.00 81 1014.5
20260505093048 57 218 3.0 6.0 0.00 0.00 0.00 81 1014.5
20260505091559 57 235 3.0 8.0 0.00 0.00 0.00 80 1014.4
20260505090049 57 217 1.0 7.0 0.00 0.00 0.00 79 1014.3
20260505084549 58 218 1.0 7.0 0.00 0.00 0.00 79 1014.1
20260505083046 58 223 3.0 9.0 0.00 0.00 0.00 79 1014.2
20260505081555 58 192 5.0 10.0 0.00 0.00 0.00 78 1014.0
20260505080046 58 216 6.0 11.0 0.00 0.00 0.00 78 1014.0
20260505074542 59 221 3.0 7.0 0.00 0.00 0.00 77 1014.0
20260505073049 59 271 1.0 3.0 0.00 0.00 0.00 76 1013.6
20260505071554 60 0 0.0 4.0 0.00 0.00 0.00 76 1013.4
20260505070050 61 198 2.0 9.0 0.00 0.00 0.00 74 1013.3
20260505064545 62 0 2.0 7.0 0.00 0.00 0.00 73 1013.1
20260505063058 63 216 5.0 9.0 0.00 0.00 0.00 72 1012.9
20260505061610 64 296 0.0 3.0 0.00 0.00 0.00 71 1012.7
20260505060039 65 0 0.0 3.0 0.00 0.00 0.00 70 1012.5
20260505054548 65 296 1.0 5.0 0.00 0.00 0.00 70 1012.4
20260505053046 65 279 5.0 12.0 0.00 0.00 0.00 70 1012.4
20260505051606 65 263 4.0 8.0 0.00 0.00 0.00 75 1012.2
20260505041551 66 0 0.0 1.0 0.00 0.00 0.00 75 1011.4
20260505040045 67 0 0.0 2.0 0.00 0.00 0.00 75 1011.1
20260505034547 67 0 0.0 1.0 0.00 0.00 0.00 72 1010.9
20260505033044 68 0 0.0 0.0 0.00 0.00 0.00 71 1010.8
20260505031552 69 0 0.0 3.0 0.00 0.00 0.00 70 1010.7
20260505030044 69 0 0.0 6.0 0.00 0.00 0.00 68 1010.4
20260505024548 70 0 2.0 10.0 0.00 0.00 0.00 66 1010.2
20260505023048 71 209 0.0 8.0 0.00 0.00 0.00 65 1010.3
20260505021551 72 0 3.0 8.0 0.00 0.00 0.00 62 1010.2
20260505020043 74 222 3.0 8.0 0.00 0.00 0.00 59 1010.2
20260505014543 75 215 5.0 9.0 0.00 0.00 0.00 57 1010.1
20260505013042 75 249 5.0 10.0 0.00 0.00 0.00 56 1010.4
20260505011551 76 242 3.0 9.0 0.00 0.00 0.00 56 1010.6
20260505010057 75 239 3.0 10.0 0.00 0.00 0.00 55 1010.6
20260505004544 74 227 2.0 7.0 0.00 0.00 0.00 57 1010.7
20260505003043 75 217 3.0 9.0 0.00 0.00 0.00 54 1010.8
20260505001544 76 262 4.0 9.0 0.00 0.00 0.00 55 1010.8
20260505000046 75 216 3.0 10.0 0.00 0.00 0.00 54 1010.9
20260504234548 75 276 4.0 9.0 0.00 0.00 0.00 55 1010.9
20260504233104 75 234 6.0 10.0 0.00 0.00 0.00 55 1011.0
20260504231546 74 205 2.0 9.0 0.00 0.00 0.00 57 1011.1
20260504230053 74 286 3.0 10.0 0.00 0.00 0.00 53 1011.2
20260504224542 73 280 4.0 9.0 0.00 0.00 0.00 57 1011.3